Total_Precipitation_Accumulation
1.97 2.14 2.45 2.93 3.74 4.47 5.15 5.25 5.51 5.04 4.41 3.87 3.49 3.37 3.17 2.86 2.74 2.61 2.45 2.30 2.07 1.95 2.15 1.99 2.04 1.91 1.98 2.00 2.11 2.36 2.48 2.14 2.26 2.70 2.30 1.71 1.38 1.40 1.28 1.24 1.32 1.36 1.40
2.04 2.38 2.91 3.30 3.33 3.87 4.57 4.61 4.32 4.10 3.67 3.28 3.12 2.95 2.89 2.57 2.38 2.24 2.24 2.04 1.90 1.90 1.90 2.02 1.90 1.87 1.98 1.98 2.05 2.26 2.26 2.00 2.20 2.66 2.75 2.22 1.85 1.57 1.22 1.19 1.26 1.38 1.58
1.89 2.31 2.73 3.17 3.14 3.52 3.60 3.23 3.08 3.16 3.11 2.95 2.85 2.72 2.70 2.50 2.23 2.06 2.03 1.88 1.69 1.69 1.70 1.71 1.77 1.88 1.71 1.84 2.01 2.16 2.27 2.14 2.08 2.36 2.75 2.51 2.16 1.84 1.48 1.37 1.48 1.61 1.77
1.35 1.63 1.97 2.39 2.59 2.68 2.59 2.56 2.54 2.58 2.78 2.79 2.57 2.38 2.10 2.00 1.93 1.82 1.87 1.85 1.62 1.54 1.56 1.56 1.71 1.79 1.74 1.93 1.69 1.81 2.09 2.28 2.10 2.14 2.19 2.20 2.37 2.36 1.98 1.64 1.53 1.65 1.80
1.04 1.18 1.27 1.48 1.77 2.02 2.09 2.07 2.35 2.45 2.48 2.47 2.43 2.43 2.16 1.98 1.94 2.05 2.24 2.17 1.84 1.52 1.37 1.47 1.62 1.72 1.77 1.84 1.78 1.88 1.87 1.95 1.99 2.06 2.06 2.16 2.35 2.23 2.15 1.97 1.78 1.71 1.56
0.82 0.99 1.03 1.07 1.20 1.35 1.48 1.60 1.87 2.08 2.16 2.13 2.15 2.21 2.21 2.17 2.00 1.93 1.98 1.91 1.77 1.57 1.40 1.44 1.63 1.71 1.75 1.76 1.80 1.80 1.74 1.83 1.92 1.98 2.01 2.15 2.16 2.10 2.20 2.08 1.89 1.80 1.54
0.64 0.82 0.81 0.85 0.95 0.99 1.09 1.27 1.48 1.65 1.77 1.85 1.94 2.00 2.18 2.12 1.89 1.68 1.71 1.70 1.56 1.47 1.45 1.43 1.69 1.78 1.76 1.75 1.83 1.80 1.78 1.90 1.97 1.99 2.03 2.09 2.05 2.05 2.22 2.25 1.98 1.84 1.66
0.57 0.62 0.57 0.59 0.74 0.80 0.88 1.04 1.17 1.26 1.38 1.60 1.83 1.82 1.94 1.79 1.66 1.76 1.66 1.56 1.37 1.40 1.61 1.72 1.75 1.72 1.76 1.77 1.99 1.85 1.86 1.94 1.97 1.90 2.20 2.15 2.02 2.22 2.42 2.56 2.60 2.29 2.07
0.53 0.51 0.44 0.46 0.50 0.55 0.62 0.79 1.07 1.17 1.21 1.30 1.52 1.63 1.62 1.62 1.69 1.81 1.75 1.63 1.56 1.45 1.62 1.77 1.85 1.77 1.75 1.84 2.05 2.00 2.04 2.14 2.05 2.06 2.28 2.23 2.13 2.18 2.25 2.52 2.79 2.83 2.57
0.60 0.63 0.46 0.41 0.44 0.43 0.51 0.63 0.81 1.02 1.21 1.21 1.21 1.26 1.50 1.57 1.68 1.72 1.62 1.61 1.58 1.58 1.64 1.61 1.65 1.64 1.62 1.75 2.05 2.05 2.10 2.26 2.20 2.19 2.23 2.24 2.14 2.21 2.20 2.33 2.67 2.95 2.96
0.52 0.59 0.41 0.33 0.37 0.41 0.48 0.62 0.76 1.04 1.23 1.15 1.16 1.27 1.44 1.53 1.58 1.73 1.71 1.64 1.61 1.65 1.60 1.55 1.58 1.56 1.46 1.53 1.72 1.84 2.04 2.17 2.23 2.22 2.26 2.26 2.36 2.39 2.28 2.37 2.50 2.72 2.89
0.54 0.57 0.49 0.49 0.51 0.56 0.60 0.71 0.83 1.01 1.12 1.14 1.21 1.27 1.37 1.44 1.48 1.53 1.62 1.69 1.67 1.71 1.68 1.63 1.59 1.47 1.44 1.53 1.65 1.79 1.96 2.11 2.23 2.34 2.42 2.22 2.29 2.42 2.35 2.35 2.38 2.49 2.77
0.65 0.60 0.63 0.72 0.69 0.71 0.81 0.88 0.97 1.03 1.13 1.26 1.26 1.21 1.27 1.25 1.29 1.37 1.45 1.59 1.64 1.68 1.72 1.73 1.66 1.60 1.63 1.71 1.76 1.82 1.96 2.09 2.17 2.26 2.25 2.20 2.33 2.24 2.27 2.35 2.33 2.33 2.40
0.66 0.56 0.63 0.69 0.72 0.75 0.84 0.95 1.00 1.03 1.12 1.16 1.18 1.18 1.16 1.20 1.30 1.39 1.43 1.48 1.46 1.53 1.56 1.56 1.65 1.68 1.72 1.75 1.74 1.74 1.79 1.87 1.94 1.93 1.84 1.78 1.85 1.93 2.07 2.07 2.08 2.16 2.24
0.64 0.52 0.54 0.63 0.73 0.79 0.79 0.85 0.94 1.02 1.16 1.17 1.13 1.16 1.22 1.22 1.26 1.29 1.30 1.33 1.40 1.42 1.59 1.62 1.69 1.74 1.72 1.62 1.67 1.67 1.59 1.76 1.73 1.60 1.55 1.56 1.66 1.69 1.77 1.70 1.78 1.94 2.02
0.61 0.59 0.65 0.73 0.73 0.72 0.72 0.75 0.76 0.87 1.05 1.15 1.25 1.31 1.30 1.21 1.25 1.25 1.24 1.29 1.40 1.49 1.58 1.63 1.73 1.77 1.63 1.66 1.69 1.69 1.68 1.72 1.69 1.63 1.56 1.45 1.45 1.43 1.47 1.51 1.56 1.69 1.82
0.54 0.62 0.69 0.73 0.73 0.72 0.69 0.69 0.69 0.81 1.08 1.18 1.20 1.35 1.43 1.34 1.39 1.41 1.40 1.41 1.45 1.57 1.64 1.77 1.82 1.79 1.81 1.71 1.58 1.60 1.58 1.64 1.67 1.69 1.68 1.41 1.24 1.34 1.33 1.45 1.43 1.40 1.46
0.52 0.61 0.63 0.64 0.67 0.70 0.71 0.71 0.73 0.79 1.03 1.20 1.28 1.50 1.65 1.56 1.57 1.57 1.60 1.65 1.70 1.74 1.85 1.87 1.76 1.70 1.73 1.65 1.41 1.34 1.26 1.37 1.49 1.56 1.63 1.61 1.51 1.47 1.48 1.53 1.53 1.46 1.44
0.61 0.64 0.68 0.70 0.76 0.83 0.86 0.86 0.94 1.05 1.19 1.32 1.45 1.67 1.88 1.93 1.89 1.83 1.91 1.96 1.96 1.96 2.02 2.04 1.98 1.85 1.81 1.62 1.31 1.20 1.15 1.30 1.38 1.44 1.44 1.43 1.34 1.35 1.27 1.30 1.37 1.39 1.35
0.67 0.78 0.89 0.89 0.92 0.99 0.99 1.02 1.14 1.34 1.47 1.50 1.53 1.66 1.86 1.94 1.92 1.90 2.06 2.19 2.19 2.14 2.17 2.07 1.93 1.83 1.81 1.74 1.43 1.25 1.18 1.31 1.39 1.48 1.47 1.44 1.37 1.32 1.18 1.14 1.21 1.21 1.21
0.70 0.76 0.79 0.91 1.01 1.11 1.18 1.29 1.35 1.43 1.47 1.49 1.51 1.60 1.84 2.13 2.07 2.08 2.15 2.26 2.30 2.32 2.34 2.25 2.13 1.99 1.94 1.90 1.58 1.39 1.30 1.38 1.43 1.37 1.38 1.36 1.34 1.14 1.04 1.02 1.07 1.12 1.10
0.75 0.75 0.74 0.86 1.03 1.22 1.40 1.45 1.43 1.47 1.56 1.57 1.57 1.66 1.89 2.00 2.04 2.17 2.22 2.33 2.43 2.42 2.38 2.37 2.23 2.18 2.11 1.85 1.58 1.39 1.36 1.42 1.50 1.48 1.44 1.40 1.26 1.02 0.92 0.82 0.79 0.84 0.82
0.84 0.85 0.86 0.93 1.05 1.21 1.42 1.56 1.58 1.58 1.55 1.51 1.49 1.58 1.73 1.81 1.95 2.04 1.97 2.03 2.15 2.14 2.18 2.20 2.16 2.19 2.28 2.13 1.69 1.39 1.30 1.34 1.43 1.57 1.63 1.43 1.24 1.09 0.96 0.89 0.80 0.73 0.69
1.00 0.99 1.02 1.03 1.08 1.18 1.36 1.51 1.51 1.53 1.53 1.45 1.41 1.52 1.72 1.82 1.89 1.94 1.92 1.98 2.05 2.10 2.17 2.19 2.12 2.12 2.24 2.22 1.90 1.58 1.39 1.29 1.25 1.28 1.29 1.21 1.14 1.03 0.91 0.83 0.73 0.65 0.68
1.01 1.01 1.04 1.06 1.05 1.12 1.32 1.46 1.47 1.51 1.57 1.54 1.50 1.58 1.69 1.78 1.90 1.94 1.99 2.01 2.02 1.99 1.99 1.98 1.91 1.90 2.00 2.00 1.79 1.58 1.43 1.30 1.24 1.23 1.26 1.24 1.23 1.13 1.03 0.95 0.90 0.89 0.90
1.01 1.05 1.11 1.09 1.06 1.11 1.25 1.38 1.53 1.68 1.72 1.65 1.60 1.56 1.54 1.62 1.69 1.74 1.71 1.65 1.60 1.58 1.52 1.50 1.41 1.39 1.54 1.53 1.28 1.15 1.17 1.17 1.13 1.11 1.17 1.23 1.27 1.22 1.15 1.11 1.05 1.05 1.03